Flag for Faroe Islands Weather past 2 weeks in Tórshavn, Faroe Islands, Faroe Islands

Now
34 °F

Overcast.


Feels Like: 25 °F
Forecast: 31 / 41 °F
Wind: 13 mph from North

Location: Soervaag / Vagar

Current Time: Apr 2, 2015 at 5:50:01 AM

Latest Report: Apr 2, 2015 at 5:20 AM


Visibility: N/A

Pressure: 30.09 "Hg

Humidity: 75%

Dew point: 27 °F

Location of TórshavnLocation

Historic Weather in Tórshavn — Graph

°F

Tórshavn temperature yesterday

Maximum temperature yesterday: 37 °F (at 5:50 PM)
Minimum temperature yesterday: 30 °F (at 5:20 AM)
Average temperature yesterday: 33 °F

Past Weeks' High & Low Weather Summary

 TemperatureHumidityPressure
High46 °F (Mar 20, 1:20 PM)100% (Mar 19, 4:50 AM)30.45 "Hg (Mar 19, 4:50 AM)
Low30 °F (Mar 24, 6:20 AM)51% (Apr 1, 2:50 AM)28.85 "Hg (Mar 31, 3:50 AM)
Average39 °F83%29.65 "Hg
* Reported Mar 18 3:20 AM — Apr 2 4:20 AM, Tórshavn, Weather by CustomWeather, © 2015

Note: Actual official high and low records may vary slightly from our data, if they occured in-between our weather recording intervals... More about our weather records

Advertising

Tórshavn weather history for previous 24 hours

 ConditionsComfort  
Time TempWeatherWind HumidityBarometerVisibility
4:20 AM
Thu, Apr 2
36 °FOvercast.13 mph70%30.07 "HgN/A
3:50 AM36 °FOvercast.16 mph70%30.07 "HgN/A
3:20 AM36 °FPassing clouds.18 mph75%30.07 "HgN/A
2:50 AM36 °FPassing clouds.20 mph75%30.07 "HgN/A
2:20 AM36 °FPassing clouds.23 mph75%30.04 "HgN/A
1:50 AM36 °FPassing clouds.22 mph75%30.04 "HgN/A
1:20 AM36 °FPassing clouds.22 mph81%30.04 "HgN/A
12:50 AM36 °FPassing clouds.26 mph81%30.01 "HgN/A
12:20 AM36 °FSprinkles. Overcast.26 mph81%30.01 "HgN/A
11:50 PM
Wed, Apr 1
36 °FSprinkles. Overcast.28 mph81%29.98 "HgN/A
11:20 PM36 °FSprinkles. Overcast.29 mph81%29.98 "Hg5 mi
10:50 PM36 °FSprinkles. Passing clouds.35 mph81%29.95 "HgN/A
10:20 PM36 °FSprinkles. Passing clouds.32 mph87%29.95 "Hg5 mi
9:50 PM36 °FLight rain. Passing clouds.33 mph87%29.92 "Hg2 mi
9:20 PM36 °FLight rain. Overcast.35 mph87%29.92 "Hg3 mi
8:50 PM36 °FLight rain. Fog.33 mph87%29.89 "Hg3 mi
8:20 PM36 °FLight rain. Fog.32 mph87%29.86 "Hg2 mi
7:50 PM36 °FLight rain. Fog.33 mph87%29.86 "Hg2 mi
7:20 PM36 °FLight rain. Overcast.35 mph87%29.83 "Hg1 mi
6:50 PM36 °FLight rain. Partly sunny.32 mph87%29.80 "Hg2 mi
6:20 PM37 °FLight rain. Fog.36 mph81%29.77 "Hg3 mi
5:50 PM37 °FLight rain. Overcast.36 mph81%29.74 "Hg2 mi
5:20 PM36 °FLight snow. Overcast.40 mph93%29.74 "Hg2 mi
4:50 PM34 °FLight snow. Low clouds.37 mph87%29.71 "Hg1 mi
4:20 PM34 °FRain. Overcast.39 mph87%29.71 "Hg2 mi
3:50 PM34 °FSnow flurries. Partly sunny.31 mph81%29.71 "Hg2 mi
3:26 PM34 °FSnow flurries. Fog.25 mph75%29.71 "Hg2 mi
2:51 PM34 °FBroken clouds.24 mph65%29.71 "HgN/A
1:50 PM32 °FScattered showers. Scattered clouds.18 mph69%29.71 "HgN/A
12:50 PM32 °FScattered clouds.18 mph69%29.71 "HgN/A
11:50 AM32 °FScattered showers. Partly sunny.20 mph60%29.68 "HgN/A
10:50 AM32 °FPartly sunny.16 mph60%29.65 "HgN/A
10:21 AM30 °FSnow showers. Ice fog.21 mph69%29.65 "Hg2 mi
9:51 AM30 °FScattered showers. Partly sunny.18 mph80%29.65 "HgN/A
8:55 AM32 °FScattered clouds.18 mph55%29.62 "HgN/A
8:30 AM32 °FScattered clouds.16 mph60%29.62 "HgN/A
7:20 AM30 °FLight freezing rain. Passing clouds.15 mph75%29.62 "HgN/A
6:50 AM30 °FLight freezing rain. Partly cloudy.23 mph75%29.62 "HgN/A
6:20 AM30 °FLight snow. Passing clouds.14 mph75%29.62 "HgN/A
5:50 AM30 °FLight freezing rain. Passing clouds.21 mph80%29.62 "Hg3 mi
5:20 AM30 °FLight freezing rain. Passing clouds.16 mph64%29.59 "HgN/A
Weather by CustomWeather, © 2015

See weather overviewHow to use our weather pages